Time,TemperatureF,DewpointF,PressureIn,WindDirection,WindDirectionDegrees,WindSpeedMPH,WindSpeedGustMPH,Humidity,HourlyPrecipIn,Conditions,Clouds,dailyrainin,SoftwareType,DateUTC
2013-03-01 00:02:00,36.0,33.0,29.49,WNW,299,0.0,-999.0,89,-99.99,,,-99.99,,2013-03-01 05:02:00,
2013-03-01 00:11:00,36.0,33.0,29.49,WNW,299,0.0,-999.0,89,-99.99,,,-99.99,,2013-03-01 05:11:00,
2013-03-01 00:22:00,36.0,33.0,29.49,WNW,299,0.0,-999.0,89,-99.99,,,-99.99,,2013-03-01 05:22:00,
2013-03-01 00:33:00,36.0,33.0,29.49,NNW,346,1.0,-999.0,89,-99.99,,,-99.99,,2013-03-01 05:33:00,
2013-03-01 00:42:00,36.0,33.0,29.49,NNW,346,1.0,-999.0,89,-99.99,,,-99.99,,2013-03-01 05:42:00,
2013-03-01 00:53:00,36.0,33.0,29.50,NNW,346,0.0,-999.0,89,-99.99,,,-99.99,,2013-03-01 05:53:00,
2013-03-01 01:02:00,36.0,33.0,29.50,NNW,346,0.0,-999.0,89,-99.99,,,-99.99,,2013-03-01 06:02:00,
2013-03-01 01:12:00,36.0,33.0,29.50,NNW,346,0.0,-999.0,89,-99.99,,,-99.99,,2013-03-01 06:12:00,
2013-03-01 01:22:00,36.0,33.0,29.50,NNW,346,0.0,-999.0,89,-99.99,,,-99.99,,2013-03-01 06:22:00,
2013-03-01 01:32:00,36.0,33.0,29.50,NNW,346,0.0,-999.0,89,-99.99,,,-99.99,,2013-03-01 06:32:00,
2013-03-01 01:42:00,36.0,33.0,29.50,NNW,346,0.0,-999.0,89,-99.99,,,-99.99,,2013-03-01 06:42:00,
2013-03-01 01:52:00,36.0,33.0,29.50,NNW,346,0.0,-999.0,89,-99.99,,,-99.99,,2013-03-01 06:52:00,
2013-03-01 02:02:00,35.0,32.0,29.50,NNW,346,0.0,-999.0,89,-99.99,,,-99.99,,2013-03-01 07:02:00,
2013-03-01 02:12:00,35.0,32.0,29.50,NNW,346,0.0,-999.0,89,-99.99,,,-99.99,,2013-03-01 07:12:00,
2013-03-01 02:22:00,35.0,32.0,29.50,NNW,346,0.0,-999.0,89,-99.99,,,-99.99,,2013-03-01 07:22:00,
2013-03-01 02:32:00,35.0,32.0,29.49,NNW,346,0.0,-999.0,89,-99.99,,,-99.99,,2013-03-01 07:32:00,
2013-03-01 02:42:00,35.0,32.0,29.49,NNW,346,0.0,-999.0,89,-99.99,,,-99.99,,2013-03-01 07:42:00,
2013-03-01 02:52:00,35.0,32.0,29.49,NNW,346,0.0,-999.0,89,-99.99,,,-99.99,,2013-03-01 07:52:00,
2013-03-01 03:02:00,35.0,32.0,29.50,NNW,346,0.0,-999.0,88,-99.99,,,-99.99,,2013-03-01 08:02:00,
2013-03-01 03:12:00,35.0,32.0,29.50,NNW,346,0.0,-999.0,88,-99.99,,,-99.99,,2013-03-01 08:12:00,
2013-03-01 03:22:00,35.0,32.0,29.50,NNW,346,0.0,-999.0,88,-99.99,,,-99.99,,2013-03-01 08:22:00,
2013-03-01 03:32:00,35.0,32.0,29.50,NNW,346,0.0,-999.0,88,-99.99,,,-99.99,,2013-03-01 08:32:00,
2013-03-01 03:43:00,35.0,32.0,29.50,NNW,346,0.0,-999.0,88,-99.99,,,-99.99,,2013-03-01 08:43:00,
2013-03-01 03:52:00,35.0,32.0,29.50,NNW,346,0.0,-999.0,88,-99.99,,,-99.99,,2013-03-01 08:52:00,
2013-03-01 04:02:00,35.0,32.0,29.51,NNW,346,0.0,-999.0,88,-99.99,,,-99.99,,2013-03-01 09:02:00,
2013-03-01 04:12:00,35.0,32.0,29.51,NNW,346,0.0,-999.0,88,-99.99,,,-99.99,,2013-03-01 09:12:00,
2013-03-01 04:22:00,35.0,32.0,29.51,NNW,346,0.0,-999.0,88,-99.99,,,-99.99,,2013-03-01 09:22:00,
2013-03-01 04:32:00,35.0,32.0,29.52,NNW,346,0.0,-999.0,88,-99.99,,,-99.99,,2013-03-01 09:32:00,
2013-03-01 04:42:00,35.0,32.0,29.52,NNW,346,0.0,-999.0,88,-99.99,,,-99.99,,2013-03-01 09:42:00,
2013-03-01 04:52:00,34.0,31.0,29.52,NNW,346,0.0,-999.0,88,-99.99,,,-99.99,,2013-03-01 09:52:00,
2013-03-01 05:02:00,34.0,31.0,29.52,NNW,346,0.0,-999.0,88,-99.99,,,-99.99,,2013-03-01 10:02:00,
2013-03-01 05:12:00,34.0,31.0,29.52,NNW,346,0.0,-999.0,88,-99.99,,,-99.99,,2013-03-01 10:12:00,
2013-03-01 05:22:00,34.0,31.0,29.52,NNW,346,0.0,-999.0,88,-99.99,,,-99.99,,2013-03-01 10:22:00,
2013-03-01 05:32:00,33.0,30.0,29.52,NNW,346,0.0,-999.0,88,-99.99,,,-99.99,,2013-03-01 10:32:00,
2013-03-01 05:42:00,33.0,30.0,29.52,NNW,346,0.0,-999.0,88,-99.99,,,-99.99,,2013-03-01 10:42:00,
2013-03-01 05:52:00,33.0,30.0,29.52,NNW,346,0.0,-999.0,89,-99.99,,,-99.99,,2013-03-01 10:52:00,
2013-03-01 06:02:00,32.0,29.0,29.53,NNW,346,0.0,-999.0,89,-99.99,,,-99.99,,2013-03-01 11:02:00,
2013-03-01 06:12:00,32.0,29.0,29.53,NNW,346,0.0,-999.0,89,-99.99,,,-99.99,,2013-03-01 11:12:00,
2013-03-01 06:22:00,31.0,28.0,29.53,NNW,346,0.0,-999.0,89,-99.99,,,-99.99,,2013-03-01 11:22:00,
2013-03-01 06:32:00,31.0,28.0,29.53,NNW,346,0.0,-999.0,90,-99.99,,,-99.99,,2013-03-01 11:32:00,
2013-03-01 06:42:00,31.0,28.0,29.53,NNW,346,0.0,-999.0,90,-99.99,,,-99.99,,2013-03-01 11:42:00,
2013-03-01 06:52:00,31.0,28.0,29.54,NNW,346,0.0,-999.0,89,-99.99,,,-99.99,,2013-03-01 11:52:00,
2013-03-01 07:02:00,30.0,27.0,29.54,NNW,346,0.0,-999.0,89,-99.99,,,-99.99,,2013-03-01 12:02:00,
2013-03-01 07:11:00,30.0,27.0,29.54,NNW,346,0.0,-999.0,89,-99.99,,,-99.99,,2013-03-01 12:11:00,
2013-03-01 07:22:00,29.0,26.0,29.54,NNW,346,1.0,-999.0,90,-99.99,,,-99.99,,2013-03-01 12:22:00,
2013-03-01 07:32:00,30.0,28.0,29.54,NW,312,0.0,-999.0,91,-99.99,,,-99.99,,2013-03-01 12:32:00,
2013-03-01 07:42:00,30.0,28.0,29.54,NW,312,0.0,-999.0,91,-99.99,,,-99.99,,2013-03-01 12:42:00,
2013-03-01 07:52:00,31.0,29.0,29.55,WNW,294,1.0,-999.0,92,-99.99,,,-99.99,,2013-03-01 12:52:00,
2013-03-01 08:01:00,32.0,30.0,29.56,WNW,294,1.0,-999.0,92,-99.99,,,-99.99,,2013-03-01 13:01:00,
2013-03-01 08:12:00,32.0,30.0,29.56,WNW,294,1.0,-999.0,92,-99.99,,,-99.99,,2013-03-01 13:12:00,
2013-03-01 08:22:00,34.0,32.0,29.57,NW,315,3.0,-999.0,91,-99.99,,,-99.99,,2013-03-01 13:22:00,
2013-03-01 08:32:00,35.0,31.0,29.57,WNW,284,3.0,-999.0,86,-99.99,,,-99.99,,2013-03-01 13:32:00,
2013-03-01 08:42:00,35.0,31.0,29.57,WNW,284,3.0,-999.0,86,-99.99,,,-99.99,,2013-03-01 13:42:00,
2013-03-01 08:52:00,36.0,30.0,29.57,NW,308,4.0,-999.0,80,-99.99,,,-99.99,,2013-03-01 13:52:00,
2013-03-01 09:02:00,37.0,30.0,29.57,NW,307,3.0,-999.0,77,-99.99,,,-99.99,,2013-03-01 14:02:00,
2013-03-01 09:12:00,37.0,30.0,29.57,NW,307,3.0,-999.0,77,-99.99,,,-99.99,,2013-03-01 14:12:00,
2013-03-01 09:22:00,37.0,29.0,29.57,WNW,292,2.0,-999.0,74,-99.99,,,-99.99,,2013-03-01 14:22:00,
2013-03-01 09:32:00,38.0,29.0,29.57,West,275,2.0,-999.0,71,-99.99,,,-99.99,,2013-03-01 14:32:00,
2013-03-01 09:42:00,38.0,29.0,29.57,West,275,2.0,-999.0,71,-99.99,,,-99.99,,2013-03-01 14:42:00,
2013-03-01 09:52:00,38.0,29.0,29.58,WNW,286,4.0,-999.0,69,-99.99,,,-99.99,,2013-03-01 14:52:00,
2013-03-01 10:02:00,39.0,29.0,29.58,West,279,4.0,-999.0,68,-99.99,,,-99.99,,2013-03-01 15:02:00,
2013-03-01 10:11:00,39.0,29.0,29.57,WNW,302,4.0,-999.0,67,-99.99,,,-99.99,,2013-03-01 15:11:00,
2013-03-01 10:21:00,39.0,29.0,29.57,WNW,302,4.0,-999.0,67,-99.99,,,-99.99,,2013-03-01 15:21:00,
2013-03-01 10:32:00,39.0,29.0,29.57,NNW,331,3.0,-999.0,67,-99.99,,,-99.99,,2013-03-01 15:32:00,
2013-03-01 10:42:00,39.0,29.0,29.57,NNW,331,3.0,-999.0,67,-99.99,,,-99.99,,2013-03-01 15:42:00,
2013-03-01 10:52:00,39.0,28.0,29.58,WNW,294,4.0,-999.0,65,-99.99,,,-99.99,,2013-03-01 15:52:00,
2013-03-01 11:01:00,39.0,28.0,29.58,NW,305,5.0,-999.0,65,-99.99,,,-99.99,,2013-03-01 16:01:00,
2013-03-01 11:11:00,39.0,28.0,29.58,NW,305,5.0,-999.0,65,-99.99,,,-99.99,,2013-03-01 16:11:00,
2013-03-01 11:21:00,39.0,28.0,29.58,North,355,5.0,-999.0,64,-99.99,,,-99.99,,2013-03-01 16:21:00,
2013-03-01 11:32:00,40.0,29.0,29.58,WNW,296,2.0,-999.0,64,-99.99,,,-99.99,,2013-03-01 16:32:00,
2013-03-01 11:42:00,40.0,29.0,29.58,WNW,296,2.0,-999.0,64,-99.99,,,-99.99,,2013-03-01 16:42:00,
2013-03-01 11:51:00,39.0,28.0,29.59,WNW,288,4.0,-999.0,64,-99.99,,,-99.99,,2013-03-01 16:51:00,
2013-03-01 12:01:00,39.0,28.0,29.59,WNW,290,4.0,-999.0,64,-99.99,,,-99.99,,2013-03-01 17:01:00,
2013-03-01 12:11:00,39.0,28.0,29.59,WNW,290,4.0,-999.0,64,-99.99,,,-99.99,,2013-03-01 17:11:00,
2013-03-01 12:21:00,39.0,27.0,29.59,NW,306,5.0,-999.0,63,-99.99,,,-99.99,,2013-03-01 17:21:00,
2013-03-01 12:32:00,39.0,28.0,29.59,NW,304,4.0,-999.0,64,-99.99,,,-99.99,,2013-03-01 17:32:00,
2013-03-01 12:42:00,39.0,28.0,29.59,NW,304,4.0,-999.0,64,-99.99,,,-99.99,,2013-03-01 17:42:00,
2013-03-01 12:52:00,39.0,27.0,29.59,WNW,290,3.0,-999.0,63,-99.99,,,-99.99,,2013-03-01 17:52:00,
2013-03-01 13:02:00,39.0,27.0,29.58,West,279,4.0,-999.0,63,-99.99,,,-99.99,,2013-03-01 18:02:00,
2013-03-01 13:12:00,39.0,27.0,29.58,West,279,4.0,-999.0,63,-99.99,,,-99.99,,2013-03-01 18:12:00,
2013-03-01 13:22:00,39.0,27.0,29.58,WNW,292,5.0,-999.0,63,-99.99,,,-99.99,,2013-03-01 18:22:00,
2013-03-01 13:32:00,39.0,27.0,29.58,WNW,294,4.0,-999.0,63,-99.99,,,-99.99,,2013-03-01 18:32:00,
2013-03-01 13:42:00,39.0,27.0,29.58,WNW,294,4.0,-999.0,63,-99.99,,,-99.99,,2013-03-01 18:42:00,
2013-03-01 13:52:00,39.0,28.0,29.58,West,262,2.0,-999.0,64,-99.99,,,-99.99,,2013-03-01 18:52:00,
2013-03-01 14:02:00,39.0,27.0,29.58,NW,304,2.0,-999.0,63,-99.99,,,-99.99,,2013-03-01 19:02:00,
2013-03-01 14:11:00,39.0,27.0,29.58,NW,304,2.0,-999.0,63,-99.99,,,-99.99,,2013-03-01 19:11:00,
2013-03-01 14:21:00,39.0,28.0,29.58,WNW,294,4.0,-999.0,64,-99.99,,,-99.99,,2013-03-01 19:21:00,
2013-03-01 14:32:00,39.0,28.0,29.58,WNW,294,4.0,-999.0,64,-99.99,,,-99.99,,2013-03-01 19:32:00,
2013-03-01 14:42:00,39.0,28.0,29.58,WNW,294,4.0,-999.0,64,-99.99,,,-99.99,,2013-03-01 19:42:00,
2013-03-01 14:51:00,39.0,28.0,29.59,WNW,294,1.0,-999.0,64,-99.99,,,-99.99,,2013-03-01 19:51:00,
2013-03-01 15:01:00,39.0,28.0,29.59,West,273,1.0,-999.0,64,-99.99,,,-99.99,,2013-03-01 20:01:00,
2013-03-01 15:11:00,39.0,28.0,29.59,West,273,1.0,-999.0,64,-99.99,,,-99.99,,2013-03-01 20:11:00,
2013-03-01 15:21:00,39.0,27.0,29.59,WNW,300,3.0,-999.0,63,-99.99,,,-99.99,,2013-03-01 20:21:00,
2013-03-01 15:32:00,38.0,27.0,29.59,WNW,302,3.0,-999.0,64,-99.99,,,-99.99,,2013-03-01 20:32:00,
2013-03-01 15:42:00,38.0,27.0,29.59,WNW,302,3.0,-999.0,64,-99.99,,,-99.99,,2013-03-01 20:42:00,
2013-03-01 15:52:00,39.0,28.0,29.59,NW,306,1.0,-999.0,64,-99.99,,,-99.99,,2013-03-01 20:52:00,
2013-03-01 16:02:00,39.0,28.0,29.59,WNW,298,1.0,-999.0,64,-99.99,,,-99.99,,2013-03-01 21:02:00,
2013-03-01 16:11:00,39.0,28.0,29.59,North,355,2.0,-999.0,64,-99.99,,,-99.99,,2013-03-01 21:11:00,
2013-03-01 16:21:00,39.0,28.0,29.59,North,355,2.0,-999.0,64,-99.99,,,-99.99,,2013-03-01 21:21:00,
2013-03-01 16:32:00,39.0,28.0,29.59,North,355,2.0,-999.0,64,-99.99,,,-99.99,,2013-03-01 21:32:00,
2013-03-01 16:42:00,39.0,28.0,29.59,North,355,2.0,-999.0,64,-99.99,,,-99.99,,2013-03-01 21:42:00,
2013-03-01 16:52:00,39.0,28.0,29.60,WNW,297,0.0,-999.0,64,-99.99,,,-99.99,,2013-03-01 21:52:00,
2013-03-01 17:01:00,39.0,28.0,29.60,WNW,298,0.0,-999.0,64,-99.99,,,-99.99,,2013-03-01 22:01:00,
2013-03-01 17:12:00,38.0,27.0,29.61,WNW,303,1.0,-999.0,63,-99.99,,,-99.99,,2013-03-01 22:12:00,
2013-03-01 17:22:00,38.0,27.0,29.61,WNW,303,1.0,-999.0,63,-99.99,,,-99.99,,2013-03-01 22:22:00,
2013-03-01 17:32:00,38.0,27.0,29.61,North,360,1.0,-999.0,63,-99.99,,,-99.99,,2013-03-01 22:32:00,
2013-03-01 17:42:00,38.0,27.0,29.61,North,360,1.0,-999.0,63,-99.99,,,-99.99,,2013-03-01 22:42:00,
2013-03-01 17:51:00,38.0,27.0,29.62,NNW,348,0.0,-999.0,64,-99.99,,,-99.99,,2013-03-01 22:51:00,
2013-03-01 18:01:00,38.0,27.0,29.62,NNW,348,0.0,-999.0,64,-99.99,,,-99.99,,2013-03-01 23:01:00,
2013-03-01 18:11:00,38.0,27.0,29.62,NNW,348,0.0,-999.0,64,-99.99,,,-99.99,,2013-03-01 23:11:00,
2013-03-01 18:21:00,37.0,27.0,29.62,NNW,332,0.0,-999.0,66,-99.99,,,-99.99,,2013-03-01 23:21:00,
2013-03-01 18:32:00,37.0,27.0,29.63,NNW,332,0.0,-999.0,66,-99.99,,,-99.99,,2013-03-01 23:32:00,
2013-03-01 18:42:00,37.0,27.0,29.63,NNW,332,0.0,-999.0,66,-99.99,,,-99.99,,2013-03-01 23:42:00,
2013-03-01 18:52:00,37.0,27.0,29.63,NNW,332,0.0,-999.0,67,-99.99,,,-99.99,,2013-03-01 23:52:00,
2013-03-01 19:02:00,37.0,27.0,29.64,NNW,332,0.0,-999.0,67,-99.99,,,-99.99,,2013-03-02 00:02:00,
2013-03-01 19:12:00,37.0,27.0,29.64,NNW,332,0.0,-999.0,67,-99.99,,,-99.99,,2013-03-02 00:12:00,
2013-03-01 19:22:00,36.0,26.0,29.64,NNW,339,1.0,-999.0,68,-99.99,,,-99.99,,2013-03-02 00:22:00,
2013-03-01 19:32:00,36.0,26.0,29.63,NNW,344,2.0,-999.0,67,-99.99,,,-99.99,,2013-03-02 00:32:00,
2013-03-01 19:42:00,36.0,26.0,29.63,NNW,344,2.0,-999.0,67,-99.99,,,-99.99,,2013-03-02 00:42:00,
2013-03-01 19:52:00,36.0,26.0,29.64,NW,314,3.0,-999.0,67,-99.99,,,-99.99,,2013-03-02 00:52:00,
2013-03-01 20:01:00,36.0,26.0,29.64,WNW,295,1.0,-999.0,68,-99.99,,,-99.99,,2013-03-02 01:01:00,
2013-03-01 20:11:00,36.0,26.0,29.64,WNW,295,1.0,-999.0,68,-99.99,,,-99.99,,2013-03-02 01:11:00,
2013-03-01 20:21:00,36.0,26.0,29.65,West,281,5.0,-999.0,68,-99.99,,,-99.99,,2013-03-02 01:21:00,
2013-03-01 20:32:00,36.0,27.0,29.64,West,280,3.0,-999.0,69,-99.99,,,-99.99,,2013-03-02 01:32:00,
2013-03-01 20:42:00,36.0,27.0,29.64,West,280,3.0,-999.0,69,-99.99,,,-99.99,,2013-03-02 01:42:00,
2013-03-01 20:51:00,35.0,26.0,29.64,WNW,302,3.0,-999.0,69,-99.99,,,-99.99,,2013-03-02 01:51:00,
2013-03-01 21:01:00,35.0,26.0,29.64,WNW,291,2.0,-999.0,69,-99.99,,,-99.99,,2013-03-02 02:01:00,
2013-03-01 21:11:00,35.0,26.0,29.64,WNW,291,2.0,-999.0,69,-99.99,,,-99.99,,2013-03-02 02:11:00,
2013-03-01 21:22:00,35.0,26.0,29.64,NNW,335,2.0,-999.0,69,-99.99,,,-99.99,,2013-03-02 02:22:00,
2013-03-01 21:32:00,35.0,26.0,29.64,NW,315,2.0,-999.0,70,-99.99,,,-99.99,,2013-03-02 02:32:00,
2013-03-01 21:42:00,35.0,26.0,29.64,NW,315,2.0,-999.0,70,-99.99,,,-99.99,,2013-03-02 02:42:00,
2013-03-01 21:52:00,35.0,26.0,29.65,WNW,290,1.0,-999.0,70,-99.99,,,-99.99,,2013-03-02 02:52:00,
2013-03-01 22:02:00,35.0,26.0,29.65,WNW,283,1.0,-999.0,70,-99.99,,,-99.99,,2013-03-02 03:02:00,
2013-03-01 22:11:00,35.0,26.0,29.65,WNW,283,1.0,-999.0,70,-99.99,,,-99.99,,2013-03-02 03:11:00,
2013-03-01 22:22:00,35.0,27.0,29.64,NW,311,2.0,-999.0,71,-99.99,,,-99.99,,2013-03-02 03:22:00,
2013-03-01 22:32:00,34.0,26.0,29.64,WNW,286,1.0,-999.0,71,-99.99,,,-99.99,,2013-03-02 03:32:00,
2013-03-01 22:42:00,34.0,26.0,29.64,WNW,286,1.0,-999.0,71,-99.99,,,-99.99,,2013-03-02 03:42:00,
2013-03-01 22:52:00,34.0,26.0,29.64,NW,322,1.0,-999.0,72,-99.99,,,-99.99,,2013-03-02 03:52:00,
2013-03-01 23:02:00,34.0,26.0,29.64,NW,322,1.0,-999.0,72,-99.99,,,-99.99,,2013-03-02 04:02:00,
2013-03-01 23:12:00,34.0,26.0,29.64,NW,322,1.0,-999.0,72,-99.99,,,-99.99,,2013-03-02 04:12:00,
2013-03-01 23:22:00,34.0,26.0,29.64,WNW,302,1.0,-999.0,72,-99.99,,,-99.99,,2013-03-02 04:22:00,
2013-03-01 23:32:00,34.0,26.0,29.64,WNW,288,2.0,-999.0,72,-99.99,,,-99.99,,2013-03-02 04:32:00,
2013-03-01 23:42:00,34.0,26.0,29.64,WNW,288,2.0,-999.0,72,-99.99,,,-99.99,,2013-03-02 04:42:00,
2013-03-01 23:52:00,34.0,26.0,29.64,NW,312,2.0,-999.0,73,-99.99,,,-99.99,,2013-03-02 04:52:00,